Find Starlink 30988

NORAD ID: 58529 Int'l Des: 2023-191 Owner: SPXS Country: US Constellation: starlink operational
LEOCIRCULAR

当前视图

正在加载3D地球...

About Starlink 30988

Starlink 30988 (NORAD 58529) is a starlink constellation satellite (v2 mini) launched Dec 7, 2023 by SPXS of US. It operates in LEO, CIRCULAR orbit with a mass of 730.00 kg.

即将过境

Passes for default location (London). Set your location on the main map for personalized predictions.

高度历史

Loading altitude history...

两行轨道根数

1 58529U 23191X 26255.05062981 .00000126 00000-0 14118-4 0 9994
2 58529 43.0048 130.8919 0001441 271.4538 88.6148 15.27557324153972
Epoch: Sep 12, 2026 • Age: 20 hours

当前状态

高度 484.5 km
远地点 / 近地点 N/A
速度 7.62 km/s
星下点 -9.53°S, 11.33°E
发射日期 Dec 7, 2023
运行时间 2.7 years
类型 internet

技术详情

分类 Payload
质量 730.00 kg
干质量 700.00 kg
总质量 730.00 kg
长度 0.30 m
直径 4.10 m
跨度 29.00 m
形状 Box + pan
制造商 SPXS
平台类型 Starlink V2M
阶段状态 In Orbit
所有者/国家 SPXS/US

Most Searched